Погода в Чудиново

Россия / Челябинская область     54˚37′07″N   62˚31′10″E
темп.,
°C
ветер,
м/с
пор.,
м/с
влажн.,
%
обл.,
%
осадки,
мм/ч
давл.,
гПа
погр.,
м
17 января, вс
вс1723:00−7˚зюз7168133 0.3 1008362
02:00−9˚юз614830 0.0 1010302
05:00−11˚юз614870 0.0 1010305
08:00−11˚юз716880 0.0 1008394
11:00−10˚юз9178730 0.0 1007603
14:00−8˚юз10167992 0.1 1005970
17:00−10˚зюз8168096 0.1 1007779
20:00−15˚з510844 0.0 1011174
18 января, пн
пн1823:00−18˚зюз47852 0.0 101395
02:00−20˚з44850 0.0 101659
05:00−20˚зсз338527 0.0 101741
08:00−21˚зсз228561 0.0 101820
11:00−21˚з228549 0.0 101920
14:00−18˚юз11870 0.0 101924
17:00−22˚ююз22870 0.0 101920
20:00−23˚ююз22880 0.0 101920
19 января, вт
вт1923:00−24˚юз12890 0.0 101920
02:00−23˚сз008889 0.0 101920
05:00−23˚в118794 0.0 101820
08:00−22˚всв118799 0.0 101820
11:00−19˚св2388100 0.0 1018137
14:00−17˚св3489100 0.0 1017243
17:00−18˚св4695100 0.1 1016233
20:00−18˚св5895100 0.0 1016266
20 января, ср
ср2023:00−19˚св4796100 0.1 1015286
02:00−19˚св4798100 1.6 1015288
05:00−19˚ссв2498100 3.8 1015279
08:00−21˚с229999 0.3 101720
11:00−22˚с229890 0.3 101820
14:00−20˚з229763 0.0 102077
17:00−24˚зсз129832 0.0 102020
20:00−27˚с111009 0.0 102120
21 января, чт
чт2123:00−27˚ю1110023 0.0 102219
02:00−27˚з0110087 0.0 102219
05:00−28˚с1110081 0.0 102119
08:00−29˚ссв0110039 0.0 102119
11:00−27˚зсз119856 0.0 102019
14:00−25˚з119639 0.0 101981
17:00−27˚з129754 0.0 101819
20:00−24˚зюз2296100 0.0 101846